Location: SE Lincoln, NE
(40.7805°N, 96.6275°W)
Time: 20:16:30
(UTC-06:00)

Daily predictions for brighter satellites

Satellite Brightness Start Highest point End
(mag) Time Altitude Azimuth Time Altitude Azimuth Time Altitude Azimuth
ATLAS 2AS CENTAUR R/B 3.5 17:13:59 10° SW 17:21:50 63° NW 17:29:49 10° NNE
PSLV R/B 4.0 17:22:58 10° NNE 17:27:08 69° ESE 17:31:13 10° S
Cosmos 2333 Rocket 2.3 17:22:39 10° S 17:28:16 63° ESE 17:33:58 10° NNE
Cosmos 1689 Rocket 3.9 17:25:59 10° N 17:28:46 32° WNW 17:31:30 10° SW
BREEZE-M DEB (TANK) 4.0 17:27:01 10° SW 17:31:12 74° SE 17:48:12 10° ENE
Envisat 3.9 17:27:34 10° ESE 17:31:46 27° ENE 17:35:57 10° N
Cosmos 1536 4.4 17:30:36 10° NE 17:33:02 15° ENE 17:35:27 10° ESE
CZ-4 R/B 3.2 17:31:55 10° E 17:33:06 11° ENE 17:34:17 10° NE
Okean O Rocket 2.7 17:32:57 10° S 17:37:09 49° W 17:41:22 10° NNW
ISS -1.9 17:37:22 10° NNW 17:39:43 17° NNE 17:41:54 11° ENE
Cosmos 2237 Rocket 3.1 17:35:13 10° SSE 17:39:59 28° ESE 17:44:45 10° NE
Cosmos 1331 Rocket 4.3 17:35:06 10° NNW 17:40:20 73° WSW 17:45:35 10° S
Cosmos 1602 4.0 17:36:44 10° N 17:40:36 75° W 17:44:28 10° S
CZ-4B R/B 4.3 17:39:19 10° NNW 17:41:30 16° WNW 17:43:40 10° WSW
Cosmos 371 Rocket 4.0 17:38:59 10° NNW 17:43:48 60° WSW 17:48:35 10° S
Cosmos 2322 Rocket 4.4 17:40:43 10° W 17:44:35 19° NW 17:48:30 10° N
Feng Yun 1-1 Rocket 4.1 17:40:01 10° SSE 17:45:24 70° ENE 17:50:46 10° N
Cosmos 1500 3.9 17:42:15 10° NNE 17:45:38 30° ENE 17:48:59 10° SE
Lacrosse 5 rocket 1.6 17:41:30 10° SSW 17:45:46 56° SE 17:49:31 12° NE
H-2A R/B 2.7 17:43:21 10° SSE 17:47:01 59° ENE 17:50:39 10° N
Okean-O 3.1 17:44:20 10° SE 17:48:26 38° ENE 17:52:32 10° N
Cosmos 1340 3.2 17:44:54 10° NNW 17:48:39 62° W 17:52:22 10° S
Cosmos 1862 Rocket 3.9 17:44:42 10° SSE 17:48:46 41° E 17:52:53 10° NNE
Cosmos 2180 Rocket 4.5 17:43:38 10° N 17:49:53 70° E 17:56:11 10° SSE
Cosmos 1844 4.0 17:45:23 10° NNW 17:51:03 72° WSW 17:56:37 10° SSE
ATLAS 5 CENTAUR R/B 1.2 17:48:05 10° SSW 17:51:05 45° SE 17:52:28 17° ENE
AQUARIUS 4.1 17:50:22 10° SSE 17:54:50 76° ENE 17:59:21 10° N
SL-4 R/B 2.5 17:52:33 10° WSW 17:56:07 45° NNW 17:59:24 14° NE
USA 215 4.4 17:51:28 10° NE 17:57:07 32° NNW 18:02:45 10° W
Cosmos 2219 Rocket 2.4 17:52:33 10° SSW 17:58:08 76° WNW 18:03:48 10° NNE
Shenzhou-11 Module 1.7 17:57:00 10° W 17:59:43 68° N 18:01:17 22° ENE
CENTAUR R/B 3.7 17:52:24 10° NW 18:00:32 66° WSW 18:09:09 10° SSE
STARLINK-46 3.1 17:59:14 10° WSW 18:01:55 50° NW 18:03:40 19° NE
CORIOLIS 4.1 17:56:47 10° SSE 18:02:13 81° ENE 18:07:41 10° NNW
YAOGAN 6 3.4 18:00:14 10° SE 18:03:14 27° ENE 18:06:16 10° NNE
NOAA 12 4.1 17:58:44 10° SSE 18:03:58 63° ENE 18:09:13 10° N
Cosmos 1092 Rocket 4.5 17:58:24 10° SSE 18:04:10 39° E 18:09:55 10° NNE
Cosmos 1707 Rocket 4.5 18:00:34 10° SSW 18:04:54 52° W 18:09:18 10° N
Cosmos 1844 Rocket 4.2 18:02:35 10° NW 18:07:46 40° WSW 18:12:56 10° S
Cosmos 1980 3.8 18:04:25 10° S 18:09:53 54° ESE 18:14:59 12° NNE
NOSS 0 Rocket 3.9 18:04:48 10° SSW 18:10:56 68° ESE 18:17:08 10° NNE
Aureole 1 Rocket 3.9 18:10:36 10° SSE 18:12:04 17° ESE 18:12:04 17° ESE
SL-8 R/B 4.0 18:11:08 10° WNW 18:15:56 69° SW 18:20:43 10° SE
COBE Rocket 4.2 18:12:03 10° N 18:16:39 62° WNW 18:21:15 10° SSW
YAOGAN 3 4.5 18:13:38 10° SSE 18:17:59 81° ENE 18:22:22 10° N
COSMOS 2428 3.5 18:15:19 10° SW 18:20:49 51° WNW 18:26:23 10° NNE
CSL-04 Rocket 4.0 18:19:04 10° SE 18:23:52 38° ENE 18:28:43 10° N
Cosmos 1908 Rocket 3.8 18:22:02 10° N 18:26:15 43° ENE 18:30:25 10° SSE
Meteor 1-5 Rocket 4.4 18:21:01 10° NNW 18:26:34 71° W 18:31:54 10° S
COSMO-SKYMED 1 2.5 18:22:45 10° NNE 18:27:03 65° ESE 18:31:20 10° S
USA 267 4.3 18:24:07 10° SSE 18:30:22 47° SW 18:36:39 10° WNW
Cosmos 1666 2.9 18:26:58 10° N 18:30:33 42° ENE 18:34:05 10° SSE
FengYun 1-2 T 4.1 18:28:25 10° SSE 18:33:51 72° ENE 18:39:20 10° N
YAOGAN 1 2.8 18:30:12 10° SE 18:34:17 43° ENE 18:38:23 10° N
CSL-04 Debris 4.3 18:29:54 10° SE 18:35:08 49° ENE 18:40:22 10° N
ERBS 3.4 18:34:45 10° WNW 18:37:57 43° SW 18:41:09 10° SSE
RESURS DK-1 3.9 18:34:49 10° SW 18:38:35 34° WNW 18:42:05 11° N
ATLAS 3B R/B 3.9 18:33:08 10° NW 18:39:27 43° WSW 18:45:54 10° S
BREEZE-M DEB (TANK) 2.8 18:36:50 10° WNW 18:40:50 36° N 18:41:11 35° NNE
Centaur D-1A AC-31 3.5 18:38:58 10° SSW 18:42:01 21° SSE 18:46:12 14° ESE
USA 116 4.4 18:39:10 13° NNE 18:43:56 65° E 18:49:03 10° S
Nadezhda 4 Rocket 4.4 18:39:12 10° SSW 18:45:28 64° W 18:51:46 10° N
Cosmos 2251 Rocket 4.1 18:40:49 10° SSW 18:46:03 57° WNW 18:51:08 11° N
SeaSat 1 4.5 18:53:19 14° N 18:53:19 14° N 18:54:10 10° N
Cosmos 1553 Rocket 4.4 18:46:08 10° N 18:52:00 37° ENE 18:57:51 10° SE
Cosmos 1428 Rocket 4.5 18:46:26 10° S 18:52:25 57° E 18:57:36 15° NNE
NOAA 11 4.2 18:48:30 10° SSE 18:53:46 53° ENE 18:59:05 10° N
Okean 1-7 2.9 18:51:16 10° S 18:55:31 68° E 18:56:00 62° NE
Cosmos 2278 Rocket 2.5 18:53:58 10° NNW 18:59:36 68° WSW 19:05:11 10° SSE
Atlas Centaur 2 4.4 18:59:16 10° WSW 19:06:12 32° SSW 19:12:27 14° SE
CZ-4 R/B 1.9 19:03:46 10° S 19:07:39 56° W 19:11:30 10° NNW
Cosmos 292 Rocket 3.6 19:02:58 10° NNW 19:07:51 75° ENE 19:08:23 67° ESE
Cosmos 2026 Rocket 3.8 19:02:14 10° S 19:08:19 87° E 19:14:22 10° N
Cosmos 1536 4.3 19:05:53 10° NNW 19:09:36 37° W 19:13:17 10° SSW
SL-16 R/B 2.1 19:04:47 10° S 19:10:20 59° ESE 19:10:33 59° E
Cosmos 2333 Rocket 4.4 19:08:44 10° W 19:13:01 21° NW 19:17:21 10° N
ISS -1.5 19:13:35 10° NW 19:14:49 21° NW 19:14:49 21° NW
Cosmos 614 Rocket 4.0 19:15:30 10° S 19:19:50 62° SSE 19:19:50 62° SSE
Cosmos 407 Rocket 3.6 19:16:53 10° S 19:21:11 60° SSE 19:21:11 60° SSE
Cosmos 2237 Rocket 3.3 19:18:28 10° SW 19:23:49 41° WNW 19:27:11 21° N
Lacrosse 5 rocket 3.2 19:21:44 10° W 19:25:10 23° NNW 19:25:11 23° NNW
OAO 2 Rocket 4.1 19:21:52 10° WSW 19:26:22 43° S 19:26:22 43° S
OAO 3 Rocket 4.4 19:29:38 10° WSW 19:33:04 35° SSW 19:33:04 35° SSW
SL-4 R/B 4.4 19:33:40 10° NW 19:35:01 16° NW 19:35:01 16° NW
Meteor 1-18 Rocket 4.3 19:32:48 10° SSW 19:38:34 76° W 19:38:59 72° NW
